1278547230095,27.9375
1278547290095,27.8635
1278547350095,27.8449
1278547410095,27.8341
1278547470095,27.8497
1278547530095,27.8505
1278547590095,27.9165
1278547650095,27.7532
1278547710095,27.8708
1278547770095,27.8604
1278547830095,27.8331
1278547890095,27.8791
1278547950095,27.8814
1278548010095,27.8231
1278548070095,27.8711
1278548130095,27.9415
1278548190095,27.9128
1278548250095,27.9384
1278548310095,27.7817
1278548370095,27.8321
1278548430095,27.8363
1278548490095,27.9060
1278548550095,27.9140
1278548610095,27.8511
1278548670095,27.9365
1278548730095,27.8856
1278548790095,27.8320
1278548850095,27.8398
1278548910095,27.8079
1278548970095,27.9603
1278549030095,27.9141
1278549090095,27.8209
1278549150095,27.8810
1278549210095,27.8737
1278549270095,27.9180
1278549330095,27.7886
1278549390095,27.8539
1278549450095,27.9169
1278549510095,27.8908
1278549570095,27.8171
1278549630095,27.7642
1278549690095,27.7749
1278549750095,27.7739
1278549810095,27.8037
1278549870095,27.9023
1278549930095,27.8372
1278549990095,27.8181
1278550050095,27.8160
1278550110095,27.8361
1278550170095,27.8463
1278550230095,27.8161
1278550290095,27.7218
1278550350095,27.8278
1278550410095,27.7523
1278550470095,27.7826
1278550530095,27.7896
1278550590095,27.7525
1278550650095,27.7624
1278550710095,27.7205
1278550770095,27.6850
1278550830105,27.7178
1278550890105,27.8069
1278550950105,27.7488
1278551010105,27.7406
1278551070105,27.7781
1278551130105,27.7514
1278551190105,27.7357
1278551250105,27.8107
1278551310105,27.7811
1278551370105,27.7003
1278551430105,27.8021
1278551490105,27.7585
1278551550105,27.7648
1278551610105,27.7509
1278551670105,27.7358
1278551730105,27.7234
1278551790105,27.8041
1278551850105,27.8361
1278551910105,27.6621
1278551970105,27.7267
1278552030105,27.7092
1278552090105,27.6841
1278552150105,27.7667
1278552210105,27.7377
1278552270105,27.7588
1278552330105,27.6720
1278552390105,27.7506
1278552450105,27.6596
1278552510105,27.7365
1278552570105,27.6976
1278552630105,27.6772
1278552690105,27.7602
1278552750105,27.7777
1278552810105,27.6087
1278552870105,27.7174
1278552930105,27.7799
1278552990105,27.7838
1278553050105,27.6892
1278553110105,27.6982
1278553170105,27.7352
1278553230105,27.6471
1278553290105,27.8377
1278553350105,27.6289
1278553410105,27.7625
1278553470105,27.6489
1278553530105,27.7625
1278553590105,27.7368
1278553650105,27.7384
1278553710105,27.7352
1278553770105,27.6363
1278553830105,27.7181
1278553890105,27.8071
1278553950105,27.7688
1278554010105,27.7769
1278554070105,27.7073
1278554130105,27.7545
1278554190105,27.7641
1278554250105,27.7350
1278554310105,27.7243
1278554370105,27.6883
1278554430114,27.6472
1278554490114,27.7679
1278554550114,27.6186
1278554610114,27.7991
1278554670114,27.7889
1278554730114,27.6821
1278554790114,27.7260
1278554850114,27.6748
1278554910114,27.7231
1278554970114,27.7671
1278555030114,27.7744
1278555090114,27.7597
1278555150114,27.7782
1278555210114,27.6945
1278555270114,27.6874
1278555330114,27.7820
1278555390114,27.7433
1278555450114,27.7211
1278555510114,27.7556
1278555570114,27.7465
1278555630114,27.7020
1278555690114,27.7604
1278555750114,27.7676
1278555810114,27.7568
1278555870114,27.8078
1278555930114,27.7677
1278555990114,27.7952
1278556050114,27.7245
1278556110114,27.8471
1278556170114,27.7766
1278556230114,27.8224
1278556290114,27.7898
1278556350114,27.7532
1278556410114,27.7101
1278556470114,27.7855
1278556530114,27.7063
1278556590114,27.7203
1278556650114,27.7704
1278556710114,27.6843
1278556770114,27.6445
1278556830114,27.7893
1278556890114,27.6420
1278556950114,27.7100
1278557010114,27.7621
1278557070114,27.7233
1278557130114,27.7567
1278557190114,27.8721
1278557250114,27.6949
1278557310114,27.7048
1278557370114,27.6941
1278557430114,27.6670
1278557490114,27.7303
1278557550114,27.7322
1278557610114,27.6902
1278557670114,27.6887
1278557730114,27.6603
1278557790114,27.7431
1278557850114,27.7351
1278557910114,27.8557
1278557970114,27.8004
1278558030123,27.8253
1278558090123,27.8863
1278558150123,27.7963
1278558210123,27.8008
1278558270123,27.7156
1278558330123,27.7725
1278558390123,27.7717
1278558450123,27.7526
1278558510123,27.7563
1278558570123,27.7509
1278558630123,27.7608
1278558690123,27.8274
1278558750123,27.8282
1278558810123,27.8124
1278558870123,27.8333
1278558930123,27.9032
1278558990123,27.8026
1278559050123,27.8411
1278559110123,27.9086
1278559170123,27.8265
1278559230123,27.9129
1278559290123,27.8549
1278559350123,27.8496
1278559410123,27.9385
1278559470123,27.8644
1278559530123,27.8391
1278559590123,27.9140
1278559650123,27.9559
1278559710123,27.8237
1278559770123,27.9808
1278559830123,27.9130
1278559890123,27.9586
1278559950123,27.9297
1278560010123,28.0136
1278560070123,28.0001
1278560130123,27.8821
1278560190123,27.9510
1278560250123,27.9626
1278560310123,27.8645
1278560370123,28.0202
1278560430123,27.9574
1278560490123,28.0130
1278560550123,27.9208
1278560610123,27.9002
1278560670123,27.9355
1278560730123,28.0047
1278560790123,27.9248
1278560850123,27.9079
1278560910123,27.9571
1278560970123,27.9488
1278561030123,27.9412
1278561090123,27.9293
1278561150123,28.0230
1278561210123,27.9600
1278561270123,28.0093
1278561330123,27.9576
1278561390123,27.9660
1278561450123,27.9979
1278561510123,28.0659
1278561570123,27.9965
1278561630132,28.0431
1278561690132,27.9827
1278561750132,28.0018
1278561810132,28.0646
1278561870132,27.9563
1278561930132,27.9387
1278561990132,27.9838
1278562050132,27.9813
1278562110132,27.9712
1278562170132,27.9909
1278562230132,27.9942
1278562290132,27.9887
1278562350132,28.0369
1278562410132,27.9756
1278562470132,28.0145
1278562530132,27.9895
1278562590132,28.0141
1278562650132,27.9564
1278562710132,27.8720
1278562770132,27.9874
1278562830132,28.0288
1278562890132,27.9251
1278562950132,27.9153
1278563010132,28.0198
1278563070132,28.0890
1278563130132,28.0132
1278563190132,28.0550
1278563250132,27.9987
1278563310132,28.0736
1278563370132,28.0680
1278563430132,28.0642
1278563490132,28.0535
1278563550132,28.0570
1278563610132,28.0181
1278563670132,28.0832
1278563730132,28.1321
1278563790132,28.1164
1278563850132,28.1031
1278563910132,28.1140
1278563970132,28.0342
1278564030132,28.1519
1278564090132,28.1049
1278564150132,28.1644
1278564210132,28.1927
1278564270132,28.1183
1278564330132,28.1251
1278564390132,28.1701
1278564450132,28.3085
1278564510132,28.1237
1278564570132,28.2758
1278564630132,28.1190
1278564690132,28.2629
1278564750132,28.2285
1278564810132,28.2621
1278564870132,28.1747
1278564930132,28.3305
1278564990132,28.2719
1278565050132,28.2211
1278565110132,28.2396
1278565170132,28.1210
1278565230140,28.1709
1278565290140,28.2389
1278565350140,28.1073
1278565410140,28.1483
1278565470140,28.1912
1278565530140,28.1964
1278565590140,28.0814
1278565650140,28.1264
1278565710140,28.1301
1278565770140,28.1190
1278565830140,28.1215
1278565890140,28.0294
1278565950140,28.0655
1278566010140,28.0571
1278566070140,28.1056
1278566130140,28.0432
1278566190140,27.9787
1278566250140,28.0724
1278566310140,27.9222
1278566370140,28.0132
1278566430140,27.9499
1278566490140,27.9395
1278566550140,27.9767
1278566610140,27.9854
1278566670140,27.9528
1278566730140,27.9848
1278566790140,28.0521
1278566850140,27.9122
1278566910140,27.9747
1278566970140,27.9830
1278567030140,27.9501
1278567090140,27.9952
1278567150140,27.9697
1278567210140,27.9913
1278567270140,27.9365
1278567330140,27.9598
1278567390140,27.9455
1278567450140,27.9390
1278567510140,27.9291
1278567570140,27.9668
1278567630140,27.9145
1278567690140,27.9533
1278567750140,28.0554
1278567810140,28.0072
1278567870140,27.8941
1278567930140,27.9278
1278567990140,27.9812
1278568050140,28.0538
1278568110140,27.9103
1278568170140,27.9471
1278568230140,27.9399
1278568290140,27.8238
1278568350140,27.8840
1278568410140,27.9498
1278568470140,27.9129
1278568530140,27.9367
1278568590140,27.9535
1278568650140,27.9164
1278568710140,27.8690
1278568770140,27.8541
1278568830149,27.9228
1278568890149,27.9842
1278568950149,27.9076
1278569010149,27.9166
1278569070149,27.9130
1278569130149,27.9090
1278569190149,27.9580
1278569250149,27.8204
1278569310149,27.9735
1278569370149,27.9230
1278569430149,27.9762
1278569490149,27.8739
1278569550149,27.8989
1278569610149,27.9818
1278569670149,27.9562
1278569730149,27.8958
1278569790149,27.9427
1278569850149,27.9186
1278569910149,27.9506
1278569970149,27.9853
1278570030149,27.9876
1278570090149,27.8979
1278570150149,27.8676
1278570210149,27.9204
1278570270149,28.0151
1278570330149,27.8489
1278570390149,27.9368
1278570450149,27.8980
1278570510149,27.9596
1278570570149,28.0523
1278570630149,27.9463
1278570690149,27.8532
1278570750149,27.8532
1278570810149,27.9009
1278570870149,27.9588
1278570930149,27.8348
1278570990149,27.8708
1278571050149,27.9400
1278571110149,27.9722
1278571170149,27.9123
1278571230149,27.8393
1278571290149,27.8568
1278571350149,27.8056
1278571410149,27.8494
1278571470149,27.8265
1278571530149,27.7750
1278571590149,27.8396
1278571650149,27.8884
1278571710149,27.8231
1278571770149,27.8799
1278571830149,27.8184
1278571890149,27.8372
1278571950149,27.8327
1278572010149,27.8695
1278572070149,27.8158
1278572130149,27.8316
1278572190149,27.8597
1278572250149,27.7797
1278572310149,27.8269
1278572370149,27.7790
1278572430157,27.9033
1278572490157,27.7620
1278572550157,27.8425
1278572610157,27.7749
1278572670157,27.8052
1278572730157,27.8932
1278572790157,27.8040
1278572850157,27.8363
1278572910157,27.8785
1278572970157,27.7800
1278573030157,27.8777
1278573090157,27.8629
1278573150157,27.8431
1278573210157,27.8925
1278573270157,27.9204
1278573330157,27.6743
1278573390157,27.8964
1278573450157,27.8619
1278573510157,27.8147
1278573570157,27.8315
1278573630157,27.8726
1278573690157,27.8141
1278573750157,27.8695
1278573810157,27.7790
1278573870157,27.8893
1278573930157,27.8162
1278573990157,27.8691
1278574050157,27.8652
1278574110157,27.7912
1278574170157,27.8556
1278574230157,27.8519
1278574290157,27.8513
1278574350157,27.9367
1278574410157,27.7941
1278574470157,27.8466
1278574530157,27.7969
1278574590157,27.8613
1278574650157,27.8187
1278574710157,27.8876
1278574770157,27.7913
1278574830157,27.8648
1278574890157,27.8311
1278574950157,27.9172
1278575010157,27.8907
1278575070157,27.8634
1278575130157,27.9358
1278575190157,27.8574
1278575250157,27.9034
1278575310157,27.9729
1278575370157,27.7761
1278575430157,27.9596
1278575490157,27.8645
1278575550157,27.8589
1278575610157,27.9387
1278575670157,27.8151
1278575730157,27.9442
1278575790157,27.9182
1278575850157,27.8574
1278575910157,27.8538
1278575970157,27.8178
1278576030166,27.9224
1278576090166,27.8347
1278576150166,27.8905
1278576210166,27.8808
1278576270166,27.8391
1278576330166,27.8767
1278576390166,27.9528
1278576450166,27.8748
1278576510166,27.8495
1278576570166,27.8107
1278576630166,27.8766
1278576690166,27.8907
1278576750166,27.9373
1278576810166,27.9013
1278576870166,27.9813
1278576930166,27.9080
1278576990166,27.8919
1278577050166,27.9208
1278577110166,27.9654
1278577170166,27.9024
1278577230166,27.9774
1278577290166,27.9352
1278577350166,27.9936
1278577410166,28.0037
1278577470166,27.9244
1278577530166,27.9658
1278577590166,27.9597
1278577650166,27.8903
1278577710166,27.9254
1278577770166,27.8995
1278577830166,28.0216
1278577890166,27.9729
1278577950166,27.9049
1278578010166,27.9332
1278578070166,27.9795
1278578130166,27.9368
1278578190166,27.9399
1278578250166,28.0062
1278578310166,27.9344
1278578370166,27.9726
1278578430166,28.0156
1278578490166,27.8922
1278578550166,27.9355
1278578610166,27.9032
1278578670166,27.8562
1278578730166,27.8979
1278578790166,27.9899
1278578850166,28.0142
1278578910166,27.9697
1278578970166,27.9575
1278579030166,27.9348
1278579090166,27.9417
1278579150166,27.9288
1278579210166,27.9643
1278579270166,27.9489
1278579330166,27.9318
1278579390166,28.0074
1278579450166,27.9180
1278579510166,27.9580
1278579570166,27.9839
1278579630174,27.9758
1278579690174,27.9199
1278579750174,28.0637
1278579810174,27.9525
1278579870174,27.9697
1278579930174,27.9621
1278579990174,28.0462
1278580050174,27.9809
1278580110174,27.9525
1278580170174,27.9368
1278580230174,28.0297
1278580290174,28.0684
1278580350174,28.0048
1278580410174,28.0132
1278580470174,28.0221
1278580530174,27.9375
1278580590174,27.9221
1278580650174,28.0045
1278580710174,27.8875
1278580770174,28.0290
1278580830174,27.9546
1278580890174,27.9632
1278580950174,27.9248
1278581010174,27.9589
1278581070174,27.8987
1278581130174,27.9286
1278581190174,27.8995
1278581250174,27.9136
1278581310174,27.8925
1278581370174,27.9443
1278581430174,27.7768
1278581490174,27.8716
1278581550174,27.9227
1278581610174,27.8747
1278581670174,27.8685
1278581730174,27.8731
1278581790174,27.8584
1278581850174,27.8674
1278581910174,27.8910
1278581970174,27.8887
1278582030174,27.8456
1278582090174,27.8694
1278582150174,27.7645
1278582210174,27.7953
1278582270174,27.8833
1278582330174,27.8095
1278582390174,27.8776
1278582450174,27.7623
1278582510174,27.7931
1278582570174,27.8365
1278582630174,27.8592
1278582690174,27.8288
1278582750174,27.8494
1278582810174,27.8121
1278582870174,27.8218
1278582930174,27.8297
1278582990174,27.8147
1278583050174,27.7919
1278583110174,27.9112
1278583170174,27.8282
1278583230182,27.8678
1278583290182,27.7525
1278583350182,27.7677
1278583410182,27.7864
1278583470182,27.8208
1278583530182,27.9213
1278583590182,27.7411
1278583650182,27.8163
1278583710182,27.8362
1278583770182,27.7979
1278583830182,27.8144
1278583890182,27.8362
1278583950182,27.8330
1278584010182,27.8467
1278584070182,27.7678
1278584130182,27.8716
1278584190182,27.9007
1278584250182,27.8099
1278584310182,27.8705
1278584370182,27.9220
1278584430182,27.8934
1278584490182,27.8938
1278584550182,27.9025
1278584610182,27.9080
1278584670182,27.9750
1278584730182,27.9039
1278584790182,27.9743
1278584850182,27.9078
1278584910182,27.9573
1278584970182,27.9006
1278585030182,27.9338
1278585090182,28.0277
1278585150182,27.9121
1278585210182,27.9184
1278585270182,27.9542
1278585330182,28.0066
1278585390182,28.0342
1278585450182,28.0036
1278585510182,27.9911
1278585570182,27.9696
1278585630182,27.9670
1278585690182,28.0199
1278585750182,28.0155
1278585810182,28.1107
1278585870182,27.9153
1278585930182,28.0498
1278585990182,28.0672
1278586050182,28.0628
1278586110182,28.0450
1278586170182,27.9179
1278586230182,27.9520
1278586290182,28.0211
1278586350182,28.0219
1278586410182,27.9798
1278586470182,27.9865
1278586530182,28.0342
1278586590182,27.9711
1278586650182,28.0304
1278586710182,28.0882
1278586770182,27.5934
1278586830191,27.7619
1278586890191,27.9403
1278586950191,27.9828
1278587010191,27.9520
1278587070191,27.9932
1278587130191,27.9879
1278587190191,27.9636
1278587250191,28.0272
1278587310191,27.9879
1278587370191,28.0166
1278587430191,28.0508
1278587490191,28.0297
1278587550191,27.9976
1278587610191,27.9949
1278587670191,28.0056
1278587730191,28.0388
1278587790191,27.9770
1278587850191,28.1550
1278587910191,28.0266
1278587970191,28.0904
1278588030191,28.0128
1278588090191,27.9781
1278588150191,28.0617
1278588210191,28.0664
1278588270191,28.0746
1278588330191,28.0731
1278588390191,28.0673
1278588450191,28.0696
1278588510191,28.1521
1278588570191,28.0542
1278588630191,28.0962
1278588690191,28.1192
1278588750191,28.0556
1278588810191,27.9679
1278588870191,28.0332
1278588930191,28.0561
1278588990191,28.0434
1278589050191,28.0032
1278589110191,28.0327
1278589170191,28.1289
1278589230191,28.0739
1278589290191,28.0846
1278589350191,28.0054
1278589410191,28.1088
1278589470191,28.1517
1278589530191,28.0716
1278589590191,28.1487
1278589650191,28.0930
1278589710191,28.0527
1278589770191,28.1155
1278589830191,28.0757
1278589890191,28.0641
1278589950191,28.0788
1278590010191,28.0785
1278590070191,28.1106
1278590130191,28.0263
1278590190191,28.0897
1278590250191,28.1009
1278590310191,28.0614
1278590370191,28.0216
1278590430199,28.0640
1278590490199,28.1047
1278590550199,28.0233
1278590610199,27.9586
1278590670199,28.0345
1278590730199,28.0238
1278590790199,28.0547
1278590850199,28.0597
1278590910199,27.9571
1278590970199,27.9453
1278591030199,28.0080
1278591090199,28.0445
1278591150199,28.0358
1278591210199,27.9918
1278591270199,27.9772
1278591330199,28.1260
1278591390199,28.1600
1278591450199,27.9964
1278591510199,27.9872
1278591570199,28.0157
1278591630199,28.0928
1278591690199,27.9796
1278591750199,28.0770
1278591810199,28.1202
1278591870199,28.0528
1278591930199,28.0065
1278591990199,28.1509
1278592050199,28.0965
1278592110199,28.1153
1278592170199,28.0183
1278592230199,28.1070
1278592290199,28.0201
1278592350199,28.0976
1278592410199,27.9892
1278592470199,28.0334
1278592530199,28.0453
1278592590199,28.1006
1278592650199,28.1020
1278592710199,28.0472
1278592770199,27.9913
1278592830199,28.0366
1278592890199,28.1035
1278592950199,28.1486
1278593010199,28.1113
1278593070199,28.0162
1278593130199,28.1293
1278593190199,28.0136
1278593250199,28.1049
1278593310199,28.1129
1278593370199,28.0235
1278593430199,28.0885
1278593490199,28.1254
1278593550199,28.1120
1278593610199,28.0734
1278593670199,28.1405
1278593730199,28.1419
1278593790199,28.0494
1278593850199,28.0776
1278593910199,28.1014
1278593970199,28.1110
1278594030208,28.0604
1278594090208,28.0751
1278594150208,28.1074
1278594210208,28.0616
1278594270208,28.0730
1278594330208,28.1190
1278594390208,28.1216
1278594450208,28.1283
1278594510208,28.1154
1278594570208,28.1328
1278594630208,28.0744
1278594690208,28.1569
1278594750208,28.1216
1278594810208,28.1794
1278594870208,28.1488
1278594930208,28.1173
1278594990208,28.0989
1278595050208,28.1723
1278595110208,28.2128
1278595170208,28.1882
1278595230208,28.1433
1278595290208,28.1360
1278595350208,28.1298
1278595410208,28.1402
1278595470208,28.0239
1278595530208,28.2168
1278595590208,28.0785
1278595650208,28.2176
1278595710208,28.1658
1278595770208,28.0988
1278595830208,28.1751
1278595890208,28.1751
1278595950208,28.2245
1278596010208,28.2420
1278596070208,28.1939
1278596130208,28.2318
1278596190208,28.2452
1278596250208,28.2651
1278596310208,28.2905
1278596370208,28.1666
1278596430208,28.2547
1278596490208,28.1822
1278596550208,28.1996
1278596610208,28.2590
1278596670208,28.2544
1278596730208,28.3113
1278596790208,28.2215
1278596850208,28.2800
1278596910208,28.2173
1278596970208,28.2894
1278597030208,28.2825
1278597090208,28.1679
1278597150208,28.2331
1278597210208,28.3260
1278597270208,28.2283
1278597330208,28.2869
1278597390208,28.3027
1278597450208,28.1920
1278597510208,28.2840
1278597570208,28.2946
1278597630216,28.2808
1278597690216,28.3120
1278597750216,28.2819
1278597810216,28.2774
1278597870216,28.3203
1278597930216,28.2474
1278597990216,28.2353
1278598050216,28.2706
1278598110216,28.3438
1278598170216,28.3313
1278598230216,28.3986
1278598290216,28.4696
1278598350216,28.3303
1278598410216,28.3215
1278598470216,28.3137
1278598530216,28.2415
1278598590216,28.2909
1278598650216,28.4602
1278598710216,28.3093
1278598770216,28.4098
1278598830216,28.2815
1278598890216,28.3600
1278598950216,28.2887
1278599010216,28.2884
1278599070216,28.3222
1278599130216,28.3851
1278599190216,28.4144
1278599250216,28.3036
1278599310216,28.3355
1278599370216,28.3044
1278599430216,28.3866
1278599490216,28.3488
1278599550216,28.3856
1278599610216,28.4388
1278599670216,28.3987
1278599730216,28.3812
1278599790216,28.3761
1278599850216,28.3260
1278599910216,28.2868
1278599970216,28.3471
1278600030216,28.2867
1278600090216,28.3102
1278600150216,28.3886
1278600210216,28.3380
1278600270216,28.3305
1278600330216,28.2855
1278600390216,28.4550
1278600450216,28.3787
1278600510216,28.4255
1278600570216,28.4047
1278600630216,28.3834
1278600690216,28.4530
1278600750216,28.3947
1278600810216,28.4184
1278600870216,28.4006
1278600930216,28.4499
1278600990216,28.3989
1278601050216,28.2989
1278601110216,28.4073
1278601170216,28.4444
1278601230225,28.4129
1278601290225,28.4373
1278601350225,28.3923
1278601410225,28.4150
1278601470225,28.4651
1278601530225,28.3483
1278601590225,28.3889
1278601650225,28.4608
1278601710225,28.3969
1278601770225,28.3196
1278601830225,28.3837
1278601890225,28.4404
1278601950225,28.4250
1278602010225,28.3526
1278602070225,28.4886
1278602130225,28.4653
1278602190225,28.4236
1278602250225,28.4145
1278602310225,28.4364
1278602370225,28.4019
1278602430225,28.5531
1278602490225,28.4918
1278602550225,28.3299
1278602610225,28.4172
1278602670225,28.4720
1278602730225,28.4503
1278602790225,28.4861
1278602850225,28.4541
1278602910225,28.5343
1278602970225,28.5067
1278603030225,28.4146
1278603090225,28.4348
1278603150225,28.5087
1278603210225,28.4390
1278603270225,28.5144
1278603330225,28.3838
1278603390225,28.5649
1278603450225,28.4535
1278603510225,28.4786
1278603570225,28.5332
1278603630225,28.5635
1278603690225,28.4719
1278603750225,28.3833
1278603810225,28.5079
1278603870225,28.4403
1278603930225,28.5247
1278603990225,28.4569
1278604050225,28.5022
1278604110225,28.5331
1278604170225,28.5071
1278604230225,28.5452
1278604290225,28.5106
1278604350225,28.5129
1278604410225,28.5294
1278604470225,28.5832
1278604530225,28.6211
1278604590225,28.5003
1278604650225,28.5037
1278604710225,28.5073
1278604770225,28.6065
1278604830234,28.5611
1278604890234,28.6250
1278604950234,28.6662
1278605010234,28.5926
1278605070234,28.5792
1278605130234,28.6129
1278605190234,28.5249
1278605250234,28.5794
1278605310234,28.5609
1278605370234,28.5605
1278605430234,28.5812
1278605490234,28.5436
1278605550234,28.6137
1278605610234,28.5982
1278605670234,28.7229
1278605730234,28.6190
1278605790234,28.6355
1278605850234,28.6897
1278605910234,28.6625
1278605970234,28.6274
1278606030234,28.6968
1278606090234,28.6255
1278606150234,28.6902
1278606210234,28.6601
1278606270234,28.7126
1278606330234,28.7106
1278606390234,28.7149
1278606450234,28.6923
1278606510234,28.6715
1278606570234,28.6960
1278606630234,28.6530
1278606690234,28.8810
1278606750234,28.9840
1278606810234,28.7169
1278606870234,28.6811
1278606930234,28.6364
1278606990234,28.7446
1278607050234,28.6861
1278607110234,28.7184
1278607170234,28.8055
1278607230234,28.7840
1278607290234,28.7711
1278607350234,28.7144
1278607410234,28.6247
1278607470234,28.6241
1278607530234,28.7438
1278607590234,28.7617
1278607650234,28.6842
1278607710234,28.8453
1278607770234,28.7973
1278607830234,28.8421
1278607890234,28.7164
1278607950234,28.7911
1278608010234,28.7647
1278608070234,28.7925
1278608130234,28.6642
1278608190234,28.8455
1278608250234,28.7322
1278608310234,28.7540
1278608370234,28.7218
1278608430243,28.8263
1278608490243,28.8384
1278608550243,28.8050
1278608610243,28.8133
1278608670243,28.8831
1278608730243,28.8562
1278608790243,28.8034
1278608850243,28.8898
1278608910243,28.8111
1278608970243,28.9277
1278609030243,28.8414
1278609090243,28.9445
1278609150243,28.7957
1278609210243,28.8305
1278609270243,28.7878
1278609330243,28.8949
1278609390243,28.7677
1278609450243,28.8650
1278609510243,28.8416
1278609570243,28.7541
1278609630243,28.8421
1278609690243,28.8691
1278609750243,28.7652
1278609810243,28.8549
1278609870243,28.8892
1278609930243,28.8488
1278609990243,28.6855
1278610050243,28.7980
1278610110243,28.9079
1278610170243,28.7845
1278610230243,28.8363
1278610290243,28.8194
1278610350243,28.8172
1278610410243,28.7477
1278610470243,28.7617
1278610530243,28.7940
1278610590243,28.7349
1278610650243,28.6568
1278610710243,28.8437
1278610770243,28.7480
1278610830243,28.7999
1278610890243,28.7265
1278610950243,28.7190
1278611010243,28.6818
1278611070243,28.7809
1278611130243,28.7649
1278611190243,28.7311
1278611250243,28.7195
1278611310243,28.6909
1278611370243,28.7640
1278611430243,28.7541
1278611490243,28.6512
1278611550243,28.6636
1278611610243,28.7968
1278611670243,28.7674
1278611730243,28.7979
1278611790243,28.7218
1278611850243,28.7270
1278611910243,28.8116
1278611970243,28.8192
1278612030253,28.7122
1278612090253,28.7726
1278612150253,28.6755
1278612210253,28.8138
1278612270253,28.7512
1278612330253,28.7587
1278612390253,28.7746
1278612450253,28.6290
1278612510253,28.8654
1278612570253,28.7845